DW3478 Weather Reports


time (UTC)temp
C
wind
direction
speed
KPH
gust
KPH
rain 1hr
cm
rain 24hr
cm
rain mn
cm
humidity
%
barometer
mb
20190617130306 18 209 4.8 8.0 0.03 0.28 0.28 93 1015.5
20190617125805 18 209 11.3 19.3 0.05 0.28 0.28 92 1015.6
20190617125304 18 207 9.7 14.5 0.05 0.28 0.28 93 1015.6
20190617124304 18 205 6.4 11.3 0.05 0.28 0.28 92 1015.7
20190617123804 18 205 6.4 11.3 0.08 0.28 0.28 92 1015.8
20190617122305 18 192 4.8 9.7 0.15 0.28 0.28 92 1016.0
20190617121304 18 192 9.7 16.1 0.15 0.25 0.25 92 1016.0
20190617120304 18 185 4.8 11.3 0.18 0.25 0.25 92 1015.9
20190617115305 18 185 9.7 19.3 0.15 0.23 0.23 92 1016.1
20190617114805 18 207 9.7 20.9 0.15 0.23 0.23 91 1016.0
20190617113804 18 207 8.0 9.7 0.13 0.20 0.20 91 1016.1
20190617113304 18 207 4.8 9.7 0.10 0.18 0.18 91 1016.0
20190617112305 18 207 9.7 16.1 0.05 0.13 0.13 90 1016.1
20190617111804 18 213 8.0 14.5 0.05 0.13 0.13 90 1016.1
20190617110804 18 223 4.8 25.7 0.03 0.10 0.10 88 1016.0
20190617110304 19 227 16.1 27.4 0.00 0.08 0.08 88 1016.1
20190617105804 19 173 8.0 19.3 0.00 0.08 0.08 88 1016.1
20190617105306 19 170 8.0 19.3 0.00 0.08 0.08 87 1016.1
20190617104804 19 163 8.0 19.3 0.00 0.08 0.08 87 1015.9
20190617103804 19 165 1.6 9.7 0.00 0.08 0.08 87 1015.9
20190617103304 19 165 9.7 19.3 0.00 0.08 0.08 88 1015.9
20190617102804 19 160 9.7 20.9 0.00 0.08 0.08 88 1016.0
20190617102305 18 176 6.4 14.5 0.00 0.08 0.08 89 1015.9
20190617101804 18 182 4.8 11.3 0.00 0.08 0.08 90 1015.9
20190617100804 18 186 3.2 9.7 0.00 0.08 0.08 91 1015.9
20190617095804 18 186 1.6 9.7 0.00 0.08 0.08 92 1016.0
20190617095305 18 186 3.2 4.8 0.00 0.08 0.08 92 1016.1
20190617094804 18 186 8.0 16.1 0.00 0.08 0.08 92 1016.0
20190617094304 18 190 8.0 14.5 0.00 0.08 0.08 93 1015.9
20190617093804 18 190 4.8 14.5 0.00 0.08 0.08 93 1016.0
20190617092804 18 190 3.2 11.3 0.00 0.08 0.08 93 1016.1
20190617090304 18 190 6.4 9.7 0.00 0.08 0.08 93 1016.1
20190617085306 18 190 8.0 14.5 0.00 0.08 0.08 93 1016.1
20190617084304 18 190 9.7 19.3 0.00 0.08 0.08 93 1016.0
20190617083804 18 192 9.7 19.3 0.00 0.08 0.08 93 1015.9
20190617083304 18 195 8.0 16.1 0.03 0.08 0.08 93 1015.9
20190617082804 18 195 9.7 19.3 0.05 0.08 0.08 93 1016.0
20190617081304 18 196 8.0 20.9 0.05 0.08 0.08 92 1015.9
20190617080804 18 192 11.3 22.5 0.05 0.08 0.08 92 1015.9
20190617080304 18 190 9.7 19.3 0.05 0.08 0.08 92 1015.9
20190617075804 18 190 11.3 20.9 0.05 0.08 0.08 92 1015.9
20190617075305 18 182 8.0 27.4 0.05 0.08 0.08 91 1015.9
20190617074804 18 165 11.3 22.5 0.05 0.08 0.08 91 1015.8
20190617074304 18 158 19.3 27.4 0.05 0.08 0.08 90 1015.7
20190617073804 18 159 9.7 25.7 0.05 0.08 0.08 89 1015.6
20190617073304 18 159 9.7 22.5 0.03 0.05 0.05 89 1015.7
20190617072804 18 171 6.4 12.9 0.00 0.05 0.05 89 1015.5
20190617072305 18 172 6.4 19.3 0.00 0.05 0.05 89 1015.7
20190617071804 18 192 8.0 16.1 0.00 0.05 0.05 89 1015.8
20190617071305 18 205 8.0 20.9 0.00 0.05 0.05 89 1015.8
20190617070804 18 238 4.8 19.3 0.00 0.05 0.05 89 1015.8
20190617070304 18 232 8.0 24.1 0.00 0.05 0.05 89 1015.6
20190617065804 18 159 4.8 11.3 0.00 0.05 0.05 89 1015.6
20190617065304 18 159 6.4 11.3 0.00 0.05 0.05 90 1015.7
20190617064805 18 160 9.7 19.3 0.00 0.05 0.05 90 1015.8
20190617064304 18 161 8.0 16.1 0.00 0.05 0.05 90 1015.7
20190617063304 18 161 11.3 19.3 0.00 0.05 0.05 90 1015.8
20190617062804 18 161 11.3 19.3 0.00 0.05 0.05 90 1015.7
20190617062304 18 163 11.3 19.3 0.00 0.05 0.05 90 1015.8
20190617060804 18 148 11.3 22.5 0.00 0.05 0.05 90 1015.5
20190617060304 18 175 11.3 19.3 0.00 0.05 0.05 90 1015.7
20190617055304 18 182 8.0 14.5 0.00 0.05 0.05 90 1015.8
20190617054305 18 182 9.7 19.3 0.00 0.05 0.05 90 1015.9
20190617053304 18 180 8.0 19.3 0.00 0.05 0.05 90 1015.9
20190617052804 18 180 8.0 19.3 0.00 0.05 0.05 89 1015.9
20190617052304 18 181 4.8 9.7 0.00 0.05 0.05 89 1015.9
20190617051304 18 189 14.5 25.7 0.00 0.05 0.05 89 1015.9
20190617050804 18 186 20.9 29.0 0.00 0.05 0.05 90 1015.8
20190617050304 18 136 4.8 9.7 0.00 0.05 0.05 89 1015.9
20190617045804 18 136 4.8 11.3 0.03 0.05 0.05 89 1015.9
20190617044804 18 136 12.9 20.9 0.03 0.05 0.05 89 1016.0
20190617044304 18 136 4.8 9.7 0.03 0.05 0.05 89 1016.0
20190617043804 18 136 6.4 16.1 0.03 0.05 0.05 89 1016.1
20190617041304 18 136 8.0 16.1 0.05 0.05 0.05 86 1016.3
20190617040304 18 136 11.3 16.1 0.05 0.05 0.05 84 1016.4
20190617035804 18 136 12.9 19.3 0.03 0.03 0.03 84 1016.4
20190617035304 18 136 8.0 14.5 0.03 0.03 0.03 83 1016.5
20190617034804 18 136 4.8 16.1 0.03 0.03 0.03 83 1016.5
20190617033304 18 136 9.7 19.3 0.03 0.03 0.03 81 1016.5
20190617032804 18 136 8.0 12.9 0.03 0.03 0.03 81 1016.6
20190617032304 18 136 8.0 11.3 0.00 0.00 0.00 81 1016.6
20190617031304 18 136 8.0 11.3 0.00 0.00 0.00 80 1016.7
20190617030804 18 136 8.0 11.3 0.00 0.00 0.00 80 1016.7
20190617030304 18 136 4.8 11.3 0.00 0.00 0.00 80 1016.7
20190617025804 18 136 8.0 14.5 0.00 0.00 0.00 80 1016.7
20190617024804 18 136 4.8 11.3 0.00 0.00 0.00 80 1016.8
20190617024304 18 136 8.0 16.1 0.00 0.00 0.00 80 1016.9
20190617023804 18 136 9.7 19.3 0.00 0.00 0.00 80 1016.9
20190617023304 18 136 11.3 19.3 0.00 0.00 0.00 80 1016.9
20190617022304 18 136 9.7 19.3 0.00 0.00 0.00 79 1016.9
20190617021804 18 136 9.7 16.1 0.00 0.00 0.00 79 1016.8
20190617021304 18 136 9.7 19.3 0.00 0.00 0.00 79 1016.8
20190617020804 18 136 9.7 16.1 0.00 0.00 0.00 79 1016.9
20190617020305 18 136 9.7 14.5 0.00 0.00 0.00 79 1016.8
20190617015304 18 136 4.8 12.9 0.00 0.00 0.00 79 1016.9
20190617014804 18 136 6.4 11.3 0.00 0.00 0.00 79 1017.0
20190617014304 18 136 9.7 16.1 0.00 0.00 0.00 80 1017.1
20190617013304 18 136 9.7 14.5 0.00 0.00 0.00 79 1017.2
20190617012804 18 136 9.7 16.1 0.00 0.00 0.00 80 1017.4
20190617012304 18 136 8.0 19.3 0.00 0.00 0.00 79 1017.4
20190617011804 18 136 8.0 16.1 0.00 0.00 0.00 79 1017.5
20190617011304 18 136 8.0 16.1 0.00 0.00 0.00 78 1017.5
20190617010305 18 136 6.4 14.5 0.00 0.00 0.00 78 1017.7
20190617005804 18 136 8.0 16.1 0.00 0.00 0.00 77 1017.8
20190617005305 18 136 8.0 19.3 0.00 0.00 0.00 77 1017.9
20190617004304 18 136 8.0 16.1 0.00 0.00 0.00 77 1018.0
20190617003805 18 136 6.4 14.5 0.00 0.00 0.00 77 1018.0
20190617003304 18 136 8.0 16.1 0.00 0.00 0.00 77 1018.1
20190617002804 18 136 8.0 16.1 0.00 0.00 0.00 76 1018.2
20190617001804 18 136 9.7 19.3 0.00 0.00 0.00 76 1018.3
20190617000304 18 136 9.7 20.9 0.00 0.00 0.00 75 1018.6
20190616235304 18 133 14.5 19.3 0.00 0.00 0.00 74 1018.7
20190616234804 18 132 8.0 19.3 0.00 0.00 0.00 74 1018.7
20190616234304 18 130 11.3 19.3 0.00 0.00 0.00 73 1018.7
20190616233304 18 130 12.9 19.3 0.00 0.00 0.00 73 1018.8
20190616232804 18 134 8.0 16.1 0.00 0.00 0.00 73 1018.8
20190616232304 18 134 9.7 19.3 0.00 0.00 0.00 73 1018.9
20190616230304 18 136 9.7 16.1 0.00 0.00 0.00 73 1018.8
20190616225304 18 136 9.7 14.5 0.00 0.00 0.00 74 1018.8
20190616224304 18 136 9.7 19.3 0.00 0.00 0.00 74 1018.9
20190616223304 18 136 8.0 19.3 0.00 0.00 0.00 74 1019.0
20190616221804 18 136 8.0 16.1 0.00 0.00 0.00 73 1018.8
20190616221304 18 136 8.0 19.3 0.00 0.00 0.00 73 1018.9
20190616220804 18 136 9.7 16.1 0.00 0.00 0.00 73 1018.9
20190616215804 18 136 8.0 16.1 0.00 0.00 0.00 73 1018.8
20190616215304 18 137 8.0 20.9 0.00 0.00 0.00 73 1018.7
20190616214804 18 137 9.7 19.3 0.00 0.00 0.00 73 1018.7
20190616213804 18 137 8.0 19.3 0.00 0.00 0.00 73 1018.9
20190616213304 18 137 8.0 14.5 0.00 0.00 0.00 72 1018.7
20190616211304 17 137 8.0 11.3 0.00 0.00 0.00 73 1018.6
20190616210804 17 137 8.0 16.1 0.00 0.00 0.00 73 1018.5
20190616205304 17 137 8.0 12.9 0.00 0.00 0.00 72 1018.3
20190616204804 17 137 8.0 14.5 0.00 0.00 0.00 73 1018.2
20190616204304 17 137 4.8 9.7 0.00 0.00 0.00 72 1018.3
20190616203804 17 137 8.0 11.3 0.00 0.00 0.00 72 1018.4
20190616203304 17 137 8.0 14.5 0.00 0.00 0.00 72 1018.4
20190616202304 18 138 9.7 16.1 0.00 0.00 0.00 72 1018.3
20190616201804 18 138 8.0 14.5 0.00 0.00 0.00 72 1018.4
20190616201304 18 138 8.0 19.3 0.00 0.00 0.00 72 1018.5
20190616195804 18 138 6.4 14.5 0.00 0.00 0.00 71 1018.5
20190616195304 18 138 6.4 16.1 0.00 0.00 0.00 71 1018.4
20190616194804 18 138 9.7 16.1 0.00 0.00 0.00 71 1018.3
20190616194304 18 138 8.0 12.9 0.00 0.00 0.00 71 1018.2
20190616193804 18 138 9.7 14.5 0.00 0.00 0.00 70 1018.2
20190616193304 18 138 8.0 16.1 0.00 0.00 0.00 70 1018.1
20190616192304 18 139 12.9 19.3 0.00 0.00 0.00 69 1018.2
20190616191805 18 140 8.0 19.3 0.00 0.00 0.00 69 1018.3
20190616191304 19 140 11.3 19.3 0.00 0.00 0.00 69 1018.3
20190616190804 19 139 12.9 19.3 0.00 0.00 0.00 69 1018.3
20190616184304 19 139 11.3 19.3 0.00 0.00 0.00 67 1018.4
20190616182804 20 140 9.7 19.3 0.00 0.00 0.00 68 1018.4
20190616182305 20 140 11.3 19.3 0.00 0.00 0.00 68 1018.4
20190616181304 19 140 11.3 19.3 0.00 0.00 0.00 68 1018.5
20190616180804 19 140 14.5 19.3 0.00 0.00 0.00 69 1018.6
20190616175804 20 140 11.3 19.3 0.00 0.00 0.00 68 1018.7
20190616175305 20 140 9.7 16.1 0.00 0.00 0.00 69 1018.7
20190616174804 20 141 11.3 20.9 0.00 0.00 0.00 69 1018.7
20190616174304 20 143 12.9 22.5 0.00 0.00 0.00 69 1018.8
20190616173304 20 147 11.3 19.3 0.00 0.00 0.00 69 1018.9
20190616172304 20 147 11.3 20.9 0.00 0.00 0.00 70 1018.9
20190616171304 19 152 14.5 22.5 0.00 0.00 0.00 71 1019.1
20190616165804 20 152 11.3 20.9 0.00 0.00 0.00 70 1019.1
20190616165304 20 152 14.5 20.9 0.00 0.00 0.00 69 1019.2
20190616164304 20 151 11.3 22.5 0.00 0.00 0.00 69 1019.2
20190616163304 20 151 12.9 19.3 0.00 0.00 0.00 69 1019.3
20190616162804 20 150 11.3 19.3 0.00 0.00 0.00 69 1019.2
20190616161804 20 151 12.9 22.5 0.00 0.00 0.00 69 1019.3
20190616161304 19 150 14.5 20.9 0.00 0.00 0.00 70 1019.2
20190616160804 19 150 14.5 22.5 0.00 0.00 0.00 70 1019.2
20190616160304 20 151 16.1 22.5 0.00 0.00 0.00 68 1019.2
20190616155304 20 151 12.9 20.9 0.00 0.00 0.00 70 1019.3
20190616154804 20 151 16.1 20.9 0.00 0.00 0.00 68 1019.2
20190616154304 20 151 12.9 19.3 0.00 0.00 0.00 69 1019.2
20190616152804 19 152 16.1 22.5 0.00 0.00 0.00 69 1019.4
20190616150804 20 153 14.5 24.1 0.00 0.00 0.00 67 1019.4
20190616150304 20 153 12.9 22.5 0.00 0.00 0.00 67 1019.3
20190616145304 20 155 16.1 24.1 0.00 0.00 0.00 66 1019.4
20190616144804 20 154 14.5 20.9 0.00 0.00 0.00 66 1019.4
20190616144304 20 155 14.5 19.3 0.00 0.00 0.00 67 1019.5
20190616143804 20 155 16.1 22.5 0.00 0.00 0.00 66 1019.4
20190616143304 20 155 14.5 22.5 0.00 0.00 0.00 66 1019.5
20190616142304 20 155 14.5 22.5 0.00 0.00 0.00 66 1019.5
20190616141304 19 155 14.5 22.5 0.00 0.00 0.00 68 1019.6
20190616140804 20 155 12.9 20.9 0.00 0.00 0.00 67 1019.6
20190616140304 20 154 14.5 20.9 0.00 0.00 0.00 66 1019.6
20190616135804 20 155 14.5 19.3 0.00 0.00 0.00 65 1019.5
20190616135304 20 155 11.3 19.3 0.00 0.00 0.00 65 1019.5
20190616134805 20 155 14.5 22.5 0.00 0.00 0.00 65 1019.5
20190616134304 20 155 14.5 20.9 0.00 0.00 0.00 67 1019.5
20190616133804 20 156 14.5 22.5 0.00 0.00 0.00 65 1019.6
20190616133304 20 159 11.3 19.3 0.00 0.00 0.00 67 1019.5
20190616132304 19 160 12.9 22.5 0.00 0.00 0.00 67 1019.6
20190616131804 19 158 12.9 22.5 0.00 0.00 0.00 66 1019.6
20190616130804 19 158 11.3 19.3 0.00 0.00 0.00 67 1019.7